Location: Chevoux
(46.3801°N, 4.9476°E)
Time: 22:14:39
(UTC+00:00)

Cosmos 2082 Rocket - Pass Details

Date: 28 January 2021
Orbit: 832 x 854 km, 71.0° (Epoch: 03 March)

Event Time Altitude Azimuth Distance (km) Brightness Sun altitude
Rises 19:20:51 0° 328° (NNW) 3,434 5.8 -27.9°
Reaches altitude 10° 19:23:25 10° 321° (NW) 2,492 5.1 -28.4°
Maximum altitude 19:28:45 42° 253° (WSW) 1,206 3.3 -29.3°
Enters shadow 19:33:21 13° 187° (S) 2,228 4.4 -30.1°
